Year,Month,Day,Hour,Minute,Value (Times are PST for temperature in C)
2005,09,18,00,00,12.50
2005,09,18,00,01,12.40
2005,09,18,00,02,12.40
2005,09,18,00,03,12.40
2005,09,18,00,04,12.40
2005,09,18,00,05,12.40
2005,09,18,00,06,12.40
2005,09,18,00,07,12.40
2005,09,18,00,08,12.40
2005,09,18,00,09,12.40
2005,09,18,00,10,12.40
2005,09,18,00,11,12.40
2005,09,18,00,12,12.30
2005,09,18,00,13,12.30
2005,09,18,00,14,12.30
2005,09,18,00,15,12.30
2005,09,18,00,16,12.30
2005,09,18,00,17,12.30
2005,09,18,00,18,12.30
2005,09,18,00,19,12.30
2005,09,18,00,20,12.30
2005,09,18,00,21,12.30
2005,09,18,00,22,12.30
2005,09,18,00,23,12.30
2005,09,18,00,24,12.30
2005,09,18,00,25,12.30
2005,09,18,00,26,12.20
2005,09,18,00,27,12.20
2005,09,18,00,28,12.20
2005,09,18,00,29,12.20
2005,09,18,00,30,12.20
2005,09,18,00,31,12.10
2005,09,18,00,32,12.10
2005,09,18,00,33,12.10
2005,09,18,00,34,12.10
2005,09,18,00,35,12.00
2005,09,18,00,36,12.00
2005,09,18,00,37,12.00
2005,09,18,00,38,12.00
2005,09,18,00,39,12.00
2005,09,18,00,40,12.00
2005,09,18,00,41,12.00
2005,09,18,00,42,12.00
2005,09,18,00,43,12.10
2005,09,18,00,44,12.10
2005,09,18,00,45,12.10
2005,09,18,00,46,12.20
2005,09,18,00,47,12.20
2005,09,18,00,48,12.30
2005,09,18,00,49,12.40
2005,09,18,00,50,12.50
2005,09,18,00,51,12.50
2005,09,18,00,52,12.60
2005,09,18,00,53,12.60
2005,09,18,00,54,12.60
2005,09,18,00,55,12.60
2005,09,18,00,56,12.60
2005,09,18,00,57,12.60
2005,09,18,00,58,12.60
2005,09,18,00,59,12.60
2005,09,18,01,00,12.60
2005,09,18,01,01,12.60
2005,09,18,01,02,12.70
2005,09,18,01,03,12.70
2005,09,18,01,04,12.70
2005,09,18,01,05,12.80
2005,09,18,01,06,12.80
2005,09,18,01,07,12.90
2005,09,18,01,08,12.90
2005,09,18,01,09,12.90
2005,09,18,01,10,12.90
2005,09,18,01,11,12.90
2005,09,18,01,12,12.90
2005,09,18,01,13,12.90
2005,09,18,01,14,12.90
2005,09,18,01,15,12.90
2005,09,18,01,16,12.80
2005,09,18,01,17,12.80
2005,09,18,01,18,12.80
2005,09,18,01,19,12.80
2005,09,18,01,20,12.80
2005,09,18,01,21,12.80
2005,09,18,01,22,12.70
2005,09,18,01,23,12.70
2005,09,18,01,24,12.70
2005,09,18,01,25,12.60
2005,09,18,01,26,12.60
2005,09,18,01,27,12.50
2005,09,18,01,28,12.50
2005,09,18,01,29,12.50
2005,09,18,01,30,12.50
2005,09,18,01,31,12.40
2005,09,18,01,32,12.40
2005,09,18,01,33,12.40
2005,09,18,01,34,12.40
2005,09,18,01,35,12.40
2005,09,18,01,36,12.30
2005,09,18,01,37,12.30
2005,09,18,01,38,12.30
2005,09,18,01,39,12.30
2005,09,18,01,40,12.30
2005,09,18,01,41,12.30
2005,09,18,01,42,12.30
2005,09,18,01,43,12.30
2005,09,18,01,44,12.30
2005,09,18,01,45,12.30
2005,09,18,01,46,12.30
2005,09,18,01,47,12.40
2005,09,18,01,48,12.40
2005,09,18,01,49,12.40
2005,09,18,01,50,12.40
2005,09,18,01,51,12.40
2005,09,18,01,52,12.40
2005,09,18,01,53,12.40
2005,09,18,01,54,12.40
2005,09,18,01,55,12.40
2005,09,18,01,56,12.40
2005,09,18,01,57,12.40
2005,09,18,01,58,12.40
2005,09,18,01,59,12.30
2005,09,18,02,00,12.30
2005,09,18,02,01,12.30
2005,09,18,02,02,12.20
2005,09,18,02,03,12.20
2005,09,18,02,04,12.10
2005,09,18,02,05,12.00
2005,09,18,02,06,12.00
2005,09,18,02,07,12.00
2005,09,18,02,08,12.00
2005,09,18,02,09,12.00
2005,09,18,02,10,12.00
2005,09,18,02,11,12.00
2005,09,18,02,12,12.00
2005,09,18,02,13,12.00
2005,09,18,02,14,12.00
2005,09,18,02,15,12.00
2005,09,18,02,16,12.00
2005,09,18,02,17,12.00
2005,09,18,02,18,12.00
2005,09,18,02,19,12.00
2005,09,18,02,20,12.00
2005,09,18,02,21,12.00
2005,09,18,02,22,12.00
2005,09,18,02,23,12.00
2005,09,18,02,24,12.00
2005,09,18,02,25,12.00
2005,09,18,02,26,12.00
2005,09,18,02,27,12.00
2005,09,18,02,28,11.90
2005,09,18,02,29,11.90
2005,09,18,02,30,11.90
2005,09,18,02,31,11.80
2005,09,18,02,32,11.80
2005,09,18,02,33,11.80
2005,09,18,02,34,11.80
2005,09,18,02,35,11.80
2005,09,18,02,36,11.80
2005,09,18,02,37,11.80
2005,09,18,02,38,11.80
2005,09,18,02,39,11.80
2005,09,18,02,40,11.80
2005,09,18,02,41,11.80
2005,09,18,02,42,11.70
2005,09,18,02,43,11.70
2005,09,18,02,44,11.70
2005,09,18,02,45,11.70
2005,09,18,02,46,11.70
2005,09,18,02,47,11.70
2005,09,18,02,48,11.70
2005,09,18,02,49,11.70
2005,09,18,02,50,11.70
2005,09,18,02,51,11.70
2005,09,18,02,52,11.70
2005,09,18,02,53,11.70
2005,09,18,02,54,11.70
2005,09,18,02,55,11.70
2005,09,18,02,56,11.70
2005,09,18,02,57,11.70
2005,09,18,02,58,11.70
2005,09,18,02,59,11.80
2005,09,18,03,00,11.80
2005,09,18,03,01,11.80
2005,09,18,03,02,11.80
2005,09,18,03,03,11.80
2005,09,18,03,04,11.80
2005,09,18,03,05,11.90
2005,09,18,03,06,11.90
2005,09,18,03,07,11.90
2005,09,18,03,08,11.90
2005,09,18,03,09,11.90
2005,09,18,03,10,11.90
2005,09,18,03,11,11.90
2005,09,18,03,12,11.90
2005,09,18,03,13,11.90
2005,09,18,03,14,11.90
2005,09,18,03,15,11.90
2005,09,18,03,16,11.90
2005,09,18,03,17,11.90
2005,09,18,03,18,11.90
2005,09,18,03,19,11.90
2005,09,18,03,20,11.80
2005,09,18,03,21,11.80
2005,09,18,03,22,11.80
2005,09,18,03,23,11.70
2005,09,18,03,24,11.70
2005,09,18,03,25,11.60
2005,09,18,03,26,11.60
2005,09,18,03,27,11.60
2005,09,18,03,28,11.60
2005,09,18,03,29,11.60
2005,09,18,03,30,11.50
2005,09,18,03,31,11.40
2005,09,18,03,32,11.40
2005,09,18,03,33,11.40
2005,09,18,03,34,11.40
2005,09,18,03,35,11.40
2005,09,18,03,36,11.30
2005,09,18,03,37,11.30
2005,09,18,03,38,11.20
2005,09,18,03,39,11.20
2005,09,18,03,40,11.20
2005,09,18,03,41,11.10
2005,09,18,03,42,11.10
2005,09,18,03,43,11.10
2005,09,18,03,44,11.10
2005,09,18,03,45,11.00
2005,09,18,03,46,10.90
2005,09,18,03,47,10.90
2005,09,18,03,48,10.90
2005,09,18,03,49,10.90
2005,09,18,03,50,10.90
2005,09,18,03,51,10.80
2005,09,18,03,52,10.80
2005,09,18,03,53,10.80
2005,09,18,03,54,10.80
2005,09,18,03,55,10.80
2005,09,18,03,56,10.70
2005,09,18,03,57,10.70
2005,09,18,03,58,10.70
2005,09,18,03,59,10.70
2005,09,18,04,00,10.70
2005,09,18,04,01,10.70
2005,09,18,04,02,10.70
2005,09,18,04,03,10.60
2005,09,18,04,04,10.60
2005,09,18,04,05,10.60
2005,09,18,04,06,10.60
2005,09,18,04,07,10.60
2005,09,18,04,08,10.60
2005,09,18,04,09,10.70
2005,09,18,04,10,10.70
2005,09,18,04,11,10.70
2005,09,18,04,12,10.60
2005,09,18,04,13,10.60
2005,09,18,04,14,10.60
2005,09,18,04,15,10.60
2005,09,18,04,16,10.60
2005,09,18,04,17,10.50
2005,09,18,04,18,10.40
2005,09,18,04,19,10.40
2005,09,18,04,20,10.40
2005,09,18,04,21,10.40
2005,09,18,04,22,10.40
2005,09,18,04,23,10.40
2005,09,18,04,24,10.40
2005,09,18,04,25,10.40
2005,09,18,04,26,10.40
2005,09,18,04,27,10.40
2005,09,18,04,28,10.40
2005,09,18,04,29,10.40
2005,09,18,04,30,10.40
2005,09,18,04,31,10.40
2005,09,18,04,32,10.40
2005,09,18,04,33,10.40
2005,09,18,04,34,10.40
2005,09,18,04,35,10.30
2005,09,18,04,36,10.30
2005,09,18,04,37,10.20
2005,09,18,04,38,10.10
2005,09,18,04,39,10.00
2005,09,18,04,40,9.90
2005,09,18,04,41,9.90
2005,09,18,04,42,9.80
2005,09,18,04,43,9.80
2005,09,18,04,44,9.80
2005,09,18,04,45,9.70
2005,09,18,04,46,9.70
2005,09,18,04,47,9.70
2005,09,18,04,48,9.70
2005,09,18,04,49,9.70
2005,09,18,04,50,9.70
2005,09,18,04,51,9.70
2005,09,18,04,52,9.80
2005,09,18,04,53,9.80
2005,09,18,04,54,9.80
2005,09,18,04,55,9.80
2005,09,18,04,56,9.70
2005,09,18,04,57,9.70
2005,09,18,04,58,9.70
2005,09,18,04,59,9.70
2005,09,18,05,00,9.70
2005,09,18,05,01,9.70
2005,09,18,05,02,9.70
2005,09,18,05,03,9.70
2005,09,18,05,04,9.70
2005,09,18,05,05,9.70
2005,09,18,05,06,9.70
2005,09,18,05,07,9.70
2005,09,18,05,08,9.70
2005,09,18,05,09,9.60
2005,09,18,05,10,9.60
2005,09,18,05,11,9.60
2005,09,18,05,12,9.60
2005,09,18,05,13,9.60
2005,09,18,05,14,9.50
2005,09,18,05,15,9.50
2005,09,18,05,16,9.50
2005,09,18,05,17,9.50
2005,09,18,05,18,9.50
2005,09,18,05,19,9.50
2005,09,18,05,20,9.50
2005,09,18,05,21,9.50
2005,09,18,05,22,9.50
2005,09,18,05,23,9.40
2005,09,18,05,24,9.40
2005,09,18,05,25,9.40
2005,09,18,05,26,9.40
2005,09,18,05,27,9.40
2005,09,18,05,28,9.40
2005,09,18,05,29,9.40
2005,09,18,05,30,9.40
2005,09,18,05,31,9.40
2005,09,18,05,32,9.40
2005,09,18,05,33,9.40
2005,09,18,05,34,9.50
2005,09,18,05,35,9.70
2005,09,18,05,36,9.70
2005,09,18,05,37,9.70
2005,09,18,05,38,9.80
2005,09,18,05,39,9.80
2005,09,18,05,40,9.90
2005,09,18,05,41,9.90
2005,09,18,05,42,9.90
2005,09,18,05,43,10.00
2005,09,18,05,44,10.10
2005,09,18,05,45,10.10
2005,09,18,05,46,10.10
2005,09,18,05,47,10.10
2005,09,18,05,48,10.10
2005,09,18,05,49,10.20
2005,09,18,05,50,10.20
2005,09,18,05,51,10.20
2005,09,18,05,52,10.20
2005,09,18,05,53,10.20
2005,09,18,05,54,10.20
2005,09,18,05,55,10.30
2005,09,18,05,56,10.30
2005,09,18,05,57,10.30
2005,09,18,05,58,10.30
2005,09,18,05,59,10.30
2005,09,18,06,00,10.30
2005,09,18,06,01,10.30
2005,09,18,06,02,10.30
2005,09,18,06,03,10.30
2005,09,18,06,04,10.30
2005,09,18,06,05,10.30
2005,09,18,06,06,10.30
2005,09,18,06,07,10.30
2005,09,18,06,08,10.30
2005,09,18,06,09,10.20
2005,09,18,06,10,10.20
2005,09,18,06,11,10.20
2005,09,18,06,12,10.20
2005,09,18,06,13,10.20
2005,09,18,06,14,10.20
2005,09,18,06,15,10.20
2005,09,18,06,16,10.10
2005,09,18,06,17,10.10
2005,09,18,06,18,10.10
2005,09,18,06,19,10.10
2005,09,18,06,20,10.10
2005,09,18,06,21,10.10
2005,09,18,06,22,10.10
2005,09,18,06,23,10.10
2005,09,18,06,24,10.10
2005,09,18,06,25,10.10
2005,09,18,06,26,10.10
2005,09,18,06,27,10.10
2005,09,18,06,28,10.10
2005,09,18,06,29,10.10
2005,09,18,06,30,10.10
2005,09,18,06,31,10.10
2005,09,18,06,32,10.10
2005,09,18,06,33,10.10
2005,09,18,06,34,10.10
2005,09,18,06,35,10.10
2005,09,18,06,36,10.10
2005,09,18,06,37,10.10
2005,09,18,06,38,10.10
2005,09,18,06,39,10.10
2005,09,18,06,40,10.10
2005,09,18,06,41,10.10
2005,09,18,06,42,10.00
2005,09,18,06,43,9.90
2005,09,18,06,44,9.90
2005,09,18,06,45,9.90
2005,09,18,06,46,9.90
2005,09,18,06,47,9.90
2005,09,18,06,48,9.90
2005,09,18,06,49,9.90
2005,09,18,06,50,9.90
2005,09,18,06,51,9.90
2005,09,18,06,52,9.90
2005,09,18,06,53,9.80
2005,09,18,06,54,9.80
2005,09,18,06,55,9.80
2005,09,18,06,56,9.80
2005,09,18,06,57,9.80
2005,09,18,06,58,9.80
2005,09,18,06,59,9.70
2005,09,18,07,00,9.70
2005,09,18,07,01,9.70
2005,09,18,07,02,9.70
2005,09,18,07,03,9.70
2005,09,18,07,04,9.70
2005,09,18,07,05,9.70
2005,09,18,07,06,9.70
2005,09,18,07,07,9.70
2005,09,18,07,08,9.70
2005,09,18,07,09,9.70
2005,09,18,07,10,9.70
2005,09,18,07,11,9.60
2005,09,18,07,12,9.60
2005,09,18,07,13,9.60
2005,09,18,07,14,9.60
2005,09,18,07,15,9.60
2005,09,18,07,16,9.50
2005,09,18,07,17,9.50
2005,09,18,07,18,9.50
2005,09,18,07,19,9.50
2005,09,18,07,20,9.50
2005,09,18,07,21,9.50
2005,09,18,07,22,9.50
2005,09,18,07,23,9.50
2005,09,18,07,24,9.60
2005,09,18,07,25,9.60
2005,09,18,07,26,9.60
2005,09,18,07,27,9.60
2005,09,18,07,28,9.70
2005,09,18,07,29,9.70
2005,09,18,07,30,9.80
2005,09,18,07,31,9.90
2005,09,18,07,32,9.90
2005,09,18,07,33,10.00
2005,09,18,07,34,10.10
2005,09,18,07,35,10.20
2005,09,18,07,36,10.20
2005,09,18,07,37,10.30
2005,09,18,07,38,10.30
2005,09,18,07,39,10.40
2005,09,18,07,40,10.40
2005,09,18,07,41,10.40
2005,09,18,07,42,10.50
2005,09,18,07,43,10.60
2005,09,18,07,44,10.60
2005,09,18,07,45,10.70
2005,09,18,07,46,10.70
2005,09,18,07,47,10.80
2005,09,18,07,48,10.80
2005,09,18,07,49,10.90
2005,09,18,07,50,10.90
2005,09,18,07,51,10.90
2005,09,18,07,52,10.90
2005,09,18,07,53,10.90
2005,09,18,07,54,11.00
2005,09,18,07,55,11.10
2005,09,18,07,56,11.10
2005,09,18,07,57,11.00
2005,09,18,07,58,10.90
2005,09,18,07,59,10.90
2005,09,18,08,00,10.90
2005,09,18,08,01,10.80
2005,09,18,08,02,10.70
2005,09,18,08,03,10.70
2005,09,18,08,04,10.60
2005,09,18,08,05,10.50
2005,09,18,08,06,10.40
2005,09,18,08,07,10.40
2005,09,18,08,08,10.40
2005,09,18,08,09,10.40
2005,09,18,08,10,10.40
2005,09,18,08,11,10.40
2005,09,18,08,12,10.40
2005,09,18,08,13,10.40
2005,09,18,08,14,10.40
2005,09,18,08,15,10.40
2005,09,18,08,16,10.40
2005,09,18,08,17,10.40
2005,09,18,08,18,10.40
2005,09,18,08,19,10.50
2005,09,18,08,20,10.60
2005,09,18,08,21,10.60
2005,09,18,08,22,10.60
2005,09,18,08,23,10.60
2005,09,18,08,24,10.60
2005,09,18,08,25,10.60
2005,09,18,08,26,10.60
2005,09,18,08,27,10.60
2005,09,18,08,28,10.60
2005,09,18,08,29,10.60
2005,09,18,08,30,10.60
2005,09,18,08,31,10.60
2005,09,18,08,32,10.60
2005,09,18,08,33,10.60
2005,09,18,08,34,10.60
2005,09,18,08,35,10.60
2005,09,18,08,36,10.60
2005,09,18,08,37,10.60
2005,09,18,08,38,10.70
2005,09,18,08,39,10.70
2005,09,18,08,40,10.70
2005,09,18,08,41,10.80
2005,09,18,08,42,10.80
2005,09,18,08,43,10.90
2005,09,18,08,44,10.90
2005,09,18,08,45,10.90
2005,09,18,08,46,10.90
2005,09,18,08,47,10.90
2005,09,18,08,48,11.10
2005,09,18,08,49,11.10
2005,09,18,08,50,11.10
2005,09,18,08,51,11.10
2005,09,18,08,52,11.10
2005,09,18,08,53,11.10
2005,09,18,08,54,11.10
2005,09,18,08,55,11.10
2005,09,18,08,56,11.10
2005,09,18,08,57,11.10
2005,09,18,08,58,11.10
2005,09,18,08,59,11.10
2005,09,18,09,00,11.10
2005,09,18,09,01,11.10
2005,09,18,09,02,11.10
2005,09,18,09,03,11.10
2005,09,18,09,04,11.10
2005,09,18,09,05,11.10
2005,09,18,09,06,11.20
2005,09,18,09,07,11.30
2005,09,18,09,08,11.30
2005,09,18,09,09,11.30
2005,09,18,09,10,11.40
2005,09,18,09,11,11.40
2005,09,18,09,12,11.40
2005,09,18,09,13,11.40
2005,09,18,09,14,11.50
2005,09,18,09,15,11.60
2005,09,18,09,16,11.60
2005,09,18,09,17,11.60
2005,09,18,09,18,11.70
2005,09,18,09,19,11.70
2005,09,18,09,20,11.80
2005,09,18,09,21,11.80
2005,09,18,09,22,11.80
2005,09,18,09,23,11.80
2005,09,18,09,24,11.80
2005,09,18,09,25,11.80
2005,09,18,09,26,11.80
2005,09,18,09,27,11.80
2005,09,18,09,28,11.80
2005,09,18,09,29,11.80
2005,09,18,09,30,11.80
2005,09,18,09,31,11.80
2005,09,18,09,32,11.80
2005,09,18,09,33,11.80
2005,09,18,09,34,11.90
2005,09,18,09,35,11.90
2005,09,18,09,36,12.00
2005,09,18,09,37,12.10
2005,09,18,09,38,12.20
2005,09,18,09,39,12.30
2005,09,18,09,40,12.50
2005,09,18,09,41,12.60
2005,09,18,09,42,12.70
2005,09,18,09,43,12.80
2005,09,18,09,44,12.80
2005,09,18,09,45,12.90
2005,09,18,09,46,12.90
2005,09,18,09,47,13.00
2005,09,18,09,48,13.00
2005,09,18,09,49,13.10
2005,09,18,09,50,13.20
2005,09,18,09,51,13.20
2005,09,18,09,52,13.30
2005,09,18,09,53,13.30
2005,09,18,09,54,13.30
2005,09,18,09,55,13.30
2005,09,18,09,56,13.30
2005,09,18,09,57,13.30
2005,09,18,09,58,13.30
2005,09,18,09,59,13.30
2005,09,18,10,00,13.30
2005,09,18,10,01,13.30
2005,09,18,10,02,13.40
2005,09,18,10,03,13.60
2005,09,18,10,04,13.70
2005,09,18,10,05,13.80
2005,09,18,10,06,14.00
2005,09,18,10,07,14.10
2005,09,18,10,08,14.00
2005,09,18,10,09,13.90
2005,09,18,10,10,13.90
2005,09,18,10,11,13.90
2005,09,18,10,12,13.90
2005,09,18,10,13,14.00
2005,09,18,10,14,14.00
2005,09,18,10,15,14.10
2005,09,18,10,16,14.20
2005,09,18,10,17,14.20
2005,09,18,10,18,14.30
2005,09,18,10,19,14.30
2005,09,18,10,20,14.30
2005,09,18,10,21,14.30
2005,09,18,10,22,14.40
2005,09,18,10,23,14.50
2005,09,18,10,24,14.50
2005,09,18,10,25,14.60
2005,09,18,10,26,14.60
2005,09,18,10,27,14.70
2005,09,18,10,28,14.80
2005,09,18,10,29,14.80
2005,09,18,10,30,14.80
2005,09,18,10,31,14.80
2005,09,18,10,32,14.80
2005,09,18,10,33,14.80
2005,09,18,10,34,15.00
2005,09,18,10,35,15.00
2005,09,18,10,36,14.90
2005,09,18,10,37,14.80
2005,09,18,10,38,14.80
2005,09,18,10,39,14.80
2005,09,18,10,40,14.90
2005,09,18,10,41,15.00
2005,09,18,10,42,15.00
2005,09,18,10,43,15.10
2005,09,18,10,44,15.10
2005,09,18,10,45,15.20
2005,09,18,10,46,15.20
2005,09,18,10,47,15.30
2005,09,18,10,48,15.30
2005,09,18,10,49,15.30
2005,09,18,10,50,15.30
2005,09,18,10,51,15.10
2005,09,18,10,52,15.10
2005,09,18,10,53,15.10
2005,09,18,10,54,15.10
2005,09,18,10,55,15.20
2005,09,18,10,56,15.30
2005,09,18,10,57,15.30
2005,09,18,10,58,15.40
2005,09,18,10,59,15.40
2005,09,18,11,00,15.40
2005,09,18,11,01,15.40
2005,09,18,11,02,15.50
2005,09,18,11,03,15.50
2005,09,18,11,04,15.50
2005,09,18,11,05,15.50
2005,09,18,11,06,15.60
2005,09,18,11,07,15.60
2005,09,18,11,08,15.70
2005,09,18,11,09,15.80
2005,09,18,11,10,15.80
2005,09,18,11,11,15.80
2005,09,18,11,12,15.80
2005,09,18,11,13,15.80
2005,09,18,11,14,15.80
2005,09,18,11,15,15.80
2005,09,18,11,16,15.80
2005,09,18,11,17,15.80
2005,09,18,11,18,15.80
2005,09,18,11,19,15.80
2005,09,18,11,20,15.80
2005,09,18,11,21,15.80
2005,09,18,11,22,15.80
2005,09,18,11,23,15.80
2005,09,18,11,24,15.70
2005,09,18,11,25,15.60
2005,09,18,11,26,15.60
2005,09,18,11,27,15.60
2005,09,18,11,28,15.70
2005,09,18,11,29,15.70
2005,09,18,11,30,15.70
2005,09,18,11,31,15.70
2005,09,18,11,32,15.60
2005,09,18,11,33,15.60
2005,09,18,11,34,15.60
2005,09,18,11,35,15.60
2005,09,18,11,36,15.70
2005,09,18,11,37,15.80
2005,09,18,11,38,15.90
2005,09,18,11,39,15.90
2005,09,18,11,40,16.00
2005,09,18,11,41,16.10
2005,09,18,11,42,16.20
2005,09,18,11,43,16.20
2005,09,18,11,44,16.30
2005,09,18,11,45,16.40
2005,09,18,11,46,16.40
2005,09,18,11,47,16.40
2005,09,18,11,48,16.50
2005,09,18,11,49,16.60
2005,09,18,11,50,16.60
2005,09,18,11,51,16.70
2005,09,18,11,52,16.70
2005,09,18,11,53,16.60
2005,09,18,11,54,16.60
2005,09,18,11,55,16.60
2005,09,18,11,56,16.60
2005,09,18,11,57,16.60
2005,09,18,11,58,16.60
2005,09,18,11,59,16.60
2005,09,18,12,00,16.70
2005,09,18,12,01,16.70
2005,09,18,12,02,16.70
2005,09,18,12,03,16.80
2005,09,18,12,04,16.90
2005,09,18,12,05,16.90
2005,09,18,12,06,16.90
2005,09,18,12,07,16.80
2005,09,18,12,08,16.70
2005,09,18,12,09,16.70
2005,09,18,12,10,16.70
2005,09,18,12,11,16.70
2005,09,18,12,12,16.70
2005,09,18,12,13,16.70
2005,09,18,12,14,16.70
2005,09,18,12,15,16.80
2005,09,18,12,16,16.80
2005,09,18,12,17,16.80
2005,09,18,12,18,16.80
2005,09,18,12,19,16.90
2005,09,18,12,20,16.90
2005,09,18,12,21,16.90
2005,09,18,12,22,17.00
2005,09,18,12,23,17.00
2005,09,18,12,24,17.00
2005,09,18,12,25,17.00
2005,09,18,12,26,17.10
2005,09,18,12,27,17.10
2005,09,18,12,28,17.10
2005,09,18,12,29,17.10
2005,09,18,12,30,17.20
2005,09,18,12,31,17.20
2005,09,18,12,32,17.30
2005,09,18,12,33,17.30
2005,09,18,12,34,17.30
2005,09,18,12,35,17.30
2005,09,18,12,36,17.30
2005,09,18,12,37,17.30
2005,09,18,12,38,17.30
2005,09,18,12,39,17.20
2005,09,18,12,40,17.10
2005,09,18,12,41,17.00
2005,09,18,12,42,17.00
2005,09,18,12,43,17.00
2005,09,18,12,44,17.10
2005,09,18,12,45,17.10
2005,09,18,12,46,17.20
2005,09,18,12,47,17.20
2005,09,18,12,48,17.20
2005,09,18,12,49,17.20
2005,09,18,12,50,17.20
2005,09,18,12,51,17.20
2005,09,18,12,52,17.30
2005,09,18,12,53,17.30
2005,09,18,12,54,17.30
2005,09,18,12,55,17.30
2005,09,18,12,56,17.60
2005,09,18,12,57,17.70
2005,09,18,12,58,17.80
2005,09,18,12,59,17.90
2005,09,18,13,00,17.90
2005,09,18,13,01,17.90
2005,09,18,13,02,18.00
2005,09,18,13,03,17.90
2005,09,18,13,04,17.90
2005,09,18,13,05,17.90
2005,09,18,13,06,17.90
2005,09,18,13,07,18.00
2005,09,18,13,08,18.10
2005,09,18,13,09,18.20
2005,09,18,13,10,18.20
2005,09,18,13,11,18.20
2005,09,18,13,12,18.20
2005,09,18,13,13,18.20
2005,09,18,13,14,18.10
2005,09,18,13,15,18.10
2005,09,18,13,16,18.00
2005,09,18,13,17,17.90
2005,09,18,13,18,17.90
2005,09,18,13,19,18.00
2005,09,18,13,20,18.00
2005,09,18,13,21,17.90
2005,09,18,13,22,17.90
2005,09,18,13,23,17.90
2005,09,18,13,24,17.90
2005,09,18,13,25,17.90
2005,09,18,13,26,17.90
2005,09,18,13,27,17.90
2005,09,18,13,28,17.90
2005,09,18,13,29,17.80
2005,09,18,13,30,17.70
2005,09,18,13,31,17.70
2005,09,18,13,32,17.60
2005,09,18,13,33,17.70
2005,09,18,13,34,17.80
2005,09,18,13,35,17.80
2005,09,18,13,36,17.90
2005,09,18,13,37,17.90
2005,09,18,13,38,17.90
2005,09,18,13,39,17.90
2005,09,18,13,40,17.90
2005,09,18,13,41,17.80
2005,09,18,13,42,17.70
2005,09,18,13,43,17.60
2005,09,18,13,44,17.50
2005,09,18,13,45,17.40
2005,09,18,13,46,17.40
2005,09,18,13,47,17.40
2005,09,18,13,48,17.40
2005,09,18,13,49,17.50
2005,09,18,13,50,17.60
2005,09,18,13,51,17.60
2005,09,18,13,52,17.70
2005,09,18,13,53,17.80
2005,09,18,13,54,17.90
2005,09,18,13,55,17.90
2005,09,18,13,56,17.90
2005,09,18,13,57,17.90
2005,09,18,13,58,17.90
2005,09,18,13,59,17.80
2005,09,18,14,00,17.80
2005,09,18,14,01,17.80
2005,09,18,14,02,17.70
2005,09,18,14,03,17.60
2005,09,18,14,04,17.50
2005,09,18,14,05,17.30
2005,09,18,14,06,17.10
2005,09,18,14,07,16.90
2005,09,18,14,08,16.80
2005,09,18,14,09,16.70
2005,09,18,14,10,16.70
2005,09,18,14,11,16.60
2005,09,18,14,12,16.50
2005,09,18,14,13,16.40
2005,09,18,14,14,16.40
2005,09,18,14,15,16.50
2005,09,18,14,16,16.60
2005,09,18,14,17,16.70
2005,09,18,14,18,16.70
2005,09,18,14,19,16.80
2005,09,18,14,20,16.80
2005,09,18,14,21,16.80
2005,09,18,14,22,16.80
2005,09,18,14,23,16.80
2005,09,18,14,24,16.70
2005,09,18,14,25,16.70
2005,09,18,14,26,16.50
2005,09,18,14,27,16.30
2005,09,18,14,28,16.20
2005,09,18,14,29,16.10
2005,09,18,14,30,16.10
2005,09,18,14,31,16.10
2005,09,18,14,32,16.10
2005,09,18,14,33,16.10
2005,09,18,14,34,16.10
2005,09,18,14,35,16.10
2005,09,18,14,36,16.00
2005,09,18,14,37,15.90
2005,09,18,14,38,15.80
2005,09,18,14,39,15.80
2005,09,18,14,40,15.70
2005,09,18,14,41,15.70
2005,09,18,14,42,15.70
2005,09,18,14,43,15.60
2005,09,18,14,44,15.50
2005,09,18,14,45,15.50
2005,09,18,14,46,15.40
2005,09,18,14,47,15.40
2005,09,18,14,48,15.30
2005,09,18,14,49,15.40
2005,09,18,14,50,15.40
2005,09,18,14,51,15.40
2005,09,18,14,52,15.40
2005,09,18,14,53,15.40
2005,09,18,14,54,15.40
2005,09,18,14,55,15.50
2005,09,18,14,56,15.50
2005,09,18,14,57,15.50
2005,09,18,14,58,15.60
2005,09,18,14,59,15.70
2005,09,18,15,00,15.80
2005,09,18,15,01,15.80
2005,09,18,15,02,15.90
2005,09,18,15,03,16.00
2005,09,18,15,04,16.10
2005,09,18,15,05,16.10
2005,09,18,15,06,16.20
2005,09,18,15,07,16.20
2005,09,18,15,08,16.30
2005,09,18,15,09,16.30
2005,09,18,15,10,16.40
2005,09,18,15,11,16.40
2005,09,18,15,12,16.40
2005,09,18,15,13,16.40
2005,09,18,15,14,16.40
2005,09,18,15,15,16.40
2005,09,18,15,16,16.40
2005,09,18,15,17,16.40
2005,09,18,15,18,16.30
2005,09,18,15,19,16.30
2005,09,18,15,20,16.30
2005,09,18,15,21,16.20
2005,09,18,15,22,16.20
2005,09,18,15,23,16.30
2005,09,18,15,24,16.30
2005,09,18,15,25,16.30
2005,09,18,15,26,16.40
2005,09,18,15,27,16.40
2005,09,18,15,28,16.40
2005,09,18,15,29,16.40
2005,09,18,15,30,16.40
2005,09,18,15,31,16.40
2005,09,18,15,32,16.50
2005,09,18,15,33,16.60
2005,09,18,15,34,16.70
2005,09,18,15,35,16.90
2005,09,18,15,36,17.00
2005,09,18,15,37,17.20
2005,09,18,15,38,17.30
2005,09,18,15,39,17.40
2005,09,18,15,40,17.50
2005,09,18,15,41,17.60
2005,09,18,15,42,17.70
2005,09,18,15,43,17.70
2005,09,18,15,44,17.80
2005,09,18,15,45,17.90
2005,09,18,15,46,17.90
2005,09,18,15,47,18.10
2005,09,18,15,48,18.10
2005,09,18,15,49,18.20
2005,09,18,15,50,18.20
2005,09,18,15,51,18.20
2005,09,18,15,52,18.20
2005,09,18,15,53,18.30
2005,09,18,15,54,18.30
2005,09,18,15,55,18.30
2005,09,18,15,56,18.40
2005,09,18,15,57,18.50
2005,09,18,15,58,18.50
2005,09,18,15,59,18.60
2005,09,18,16,00,18.70
2005,09,18,16,01,18.80
2005,09,18,16,02,18.80
2005,09,18,16,03,18.80
2005,09,18,16,04,18.80
2005,09,18,16,05,18.80
2005,09,18,16,06,18.70
2005,09,18,16,07,18.70
2005,09,18,16,08,18.70
2005,09,18,16,09,18.60
2005,09,18,16,10,18.60
2005,09,18,16,11,18.60
2005,09,18,16,12,18.60
2005,09,18,16,13,18.50
2005,09,18,16,14,18.40
2005,09,18,16,15,18.30
2005,09,18,16,16,18.20
2005,09,18,16,17,18.20
2005,09,18,16,18,18.10
2005,09,18,16,19,18.10
2005,09,18,16,20,18.00
2005,09,18,16,21,17.90
2005,09,18,16,22,17.90
2005,09,18,16,23,17.90
2005,09,18,16,24,17.80
2005,09,18,16,25,17.80
2005,09,18,16,26,17.80
2005,09,18,16,27,17.80
2005,09,18,16,28,17.70
2005,09,18,16,29,17.50
2005,09,18,16,30,17.40
2005,09,18,16,31,17.30
2005,09,18,16,32,17.30
2005,09,18,16,33,17.20
2005,09,18,16,34,17.20
2005,09,18,16,35,17.10
2005,09,18,16,36,17.10
2005,09,18,16,37,17.10
2005,09,18,16,38,17.10
2005,09,18,16,39,17.00
2005,09,18,16,40,17.00
2005,09,18,16,41,17.00
2005,09,18,16,42,16.80
2005,09,18,16,43,16.70
2005,09,18,16,44,16.60
2005,09,18,16,45,16.60
2005,09,18,16,46,16.50
2005,09,18,16,47,16.40
2005,09,18,16,48,16.40
2005,09,18,16,49,16.40
2005,09,18,16,50,16.40
2005,09,18,16,51,16.40
2005,09,18,16,52,16.40
2005,09,18,16,53,16.40
2005,09,18,16,54,16.40
2005,09,18,16,55,16.40
2005,09,18,16,56,16.40
2005,09,18,16,57,16.40
2005,09,18,16,58,16.40
2005,09,18,16,59,16.40
2005,09,18,17,00,16.40
2005,09,18,17,01,16.40
2005,09,18,17,02,16.30
2005,09,18,17,03,16.20
2005,09,18,17,04,16.20
2005,09,18,17,05,16.20
2005,09,18,17,06,16.20
2005,09,18,17,07,16.20
2005,09,18,17,08,16.20
2005,09,18,17,09,16.20
2005,09,18,17,10,16.30
2005,09,18,17,11,16.40
2005,09,18,17,12,16.40
2005,09,18,17,13,16.50
2005,09,18,17,14,16.60
2005,09,18,17,15,16.60
2005,09,18,17,16,16.70
2005,09,18,17,17,16.70
2005,09,18,17,18,16.60
2005,09,18,17,19,16.60
2005,09,18,17,20,16.60
2005,09,18,17,21,16.60
2005,09,18,17,22,16.60
2005,09,18,17,23,16.60
2005,09,18,17,24,16.50